Time,TemperatureF,DewpointF,PressureIn,WindDirection,WindDirectionDegrees,WindSpeedMPH,WindSpeedGustMPH,Humidity,HourlyPrecipIn,Conditions,Clouds,dailyrainin,SoftwareType,DateUTC
2013-02-23 00:03:00,33.0,30.0,29.96,SW,231,0.0,0.0,87,0.00,,,0.18,,2013-02-23 05:03:00,
2013-02-23 00:12:00,33.0,30.0,29.96,SW,231,0.0,0.0,87,0.00,,,0.18,,2013-02-23 05:12:00,
2013-02-23 00:22:00,34.0,31.0,29.96,SW,231,0.0,0.0,87,0.00,,,0.18,,2013-02-23 05:22:00,
2013-02-23 00:33:00,34.0,31.0,29.96,SW,231,0.0,0.0,88,0.00,,,0.18,,2013-02-23 05:33:00,
2013-02-23 00:42:00,34.0,31.0,29.96,SW,231,0.0,0.0,88,0.00,,,0.18,,2013-02-23 05:42:00,
2013-02-23 00:52:00,34.0,31.0,29.95,SW,231,0.0,0.0,88,0.00,,,0.08,,2013-02-23 05:52:00,
2013-02-23 01:02:00,34.0,31.0,29.96,SW,231,0.0,0.0,88,0.00,,,0.08,,2013-02-23 06:02:00,
2013-02-23 01:11:00,35.0,32.0,29.95,SW,231,0.0,0.0,88,0.00,,,0.08,,2013-02-23 06:11:00,
2013-02-23 01:22:00,35.0,32.0,29.95,SW,231,0.0,0.0,88,0.00,,,0.08,,2013-02-23 06:22:00,
2013-02-23 01:32:00,35.0,32.0,29.95,SW,231,0.0,0.0,89,0.00,,,0.08,,2013-02-23 06:32:00,
2013-02-23 01:42:00,35.0,32.0,29.95,SW,231,0.0,0.0,89,0.00,,,0.08,,2013-02-23 06:42:00,
2013-02-23 01:51:00,35.0,32.0,29.95,SW,231,0.0,0.0,88,0.00,,,0.06,,2013-02-23 06:51:00,
2013-02-23 02:01:00,35.0,32.0,29.96,SW,231,0.0,0.0,89,0.00,,,0.06,,2013-02-23 07:01:00,
2013-02-23 02:11:00,35.0,32.0,29.96,SW,231,0.0,0.0,88,0.00,,,0.06,,2013-02-23 07:11:00,
2013-02-23 02:21:00,35.0,32.0,29.96,SW,231,0.0,0.0,88,0.00,,,0.06,,2013-02-23 07:21:00,
2013-02-23 02:32:00,35.0,32.0,29.95,SW,231,0.0,0.0,89,0.00,,,0.06,,2013-02-23 07:32:00,
2013-02-23 02:42:00,35.0,32.0,29.95,SW,231,0.0,0.0,89,0.00,,,0.06,,2013-02-23 07:42:00,
2013-02-23 02:51:00,35.0,32.0,29.95,SW,231,0.0,4.0,89,0.00,,,0.05,,2013-02-23 07:51:00,
2013-02-23 03:01:00,35.0,32.0,29.95,SW,231,0.0,1.0,89,0.00,,,0.05,,2013-02-23 08:01:00,
2013-02-23 03:11:00,35.0,32.0,29.95,SW,231,0.0,1.0,89,0.00,,,0.05,,2013-02-23 08:11:00,
2013-02-23 03:21:00,35.0,32.0,29.96,SW,231,0.0,0.0,89,0.00,,,0.05,,2013-02-23 08:21:00,
2013-02-23 03:32:00,34.0,31.0,29.95,SW,231,0.0,5.0,89,0.00,,,0.05,,2013-02-23 08:32:00,
2013-02-23 03:42:00,34.0,31.0,29.95,SW,231,0.0,5.0,89,0.00,,,0.05,,2013-02-23 08:42:00,
2013-02-23 03:52:00,34.0,31.0,29.95,SW,231,0.0,0.0,88,0.00,,,0.05,,2013-02-23 08:52:00,
2013-02-23 04:02:00,34.0,31.0,29.94,SW,231,0.0,5.0,88,0.00,,,0.05,,2013-02-23 09:02:00,
2013-02-23 04:11:00,34.0,31.0,29.94,SW,231,0.0,5.0,88,0.00,,,0.05,,2013-02-23 09:11:00,
2013-02-23 04:21:00,34.0,31.0,29.95,SW,231,0.0,4.0,87,0.00,,,0.05,,2013-02-23 09:21:00,
2013-02-23 04:32:00,34.0,31.0,29.94,SW,231,0.0,6.0,87,0.00,,,0.05,,2013-02-23 09:32:00,
2013-02-23 04:42:00,34.0,31.0,29.94,SW,231,0.0,6.0,87,0.00,,,0.05,,2013-02-23 09:42:00,
2013-02-23 04:51:00,33.0,30.0,29.95,SW,231,0.0,5.0,87,0.00,,,0.00,,2013-02-23 09:51:00,
2013-02-23 05:01:00,33.0,29.0,29.93,SW,231,0.0,3.0,86,0.00,,,0.00,,2013-02-23 10:01:00,
2013-02-23 05:11:00,33.0,29.0,29.94,SW,231,0.0,2.0,86,0.00,,,0.00,,2013-02-23 10:11:00,
2013-02-23 05:21:00,33.0,29.0,29.94,SW,231,0.0,2.0,86,0.00,,,0.00,,2013-02-23 10:21:00,
2013-02-23 05:32:00,33.0,29.0,29.95,SW,231,0.0,3.0,85,0.00,,,0.00,,2013-02-23 10:32:00,
2013-02-23 05:42:00,33.0,29.0,29.95,SW,231,0.0,3.0,85,0.00,,,0.00,,2013-02-23 10:42:00,
2013-02-23 05:51:00,33.0,29.0,29.95,SW,231,1.0,5.0,85,0.00,,,0.00,,2013-02-23 10:51:00,
2013-02-23 06:02:00,33.0,29.0,29.95,SW,231,0.0,3.0,85,0.00,,,0.00,,2013-02-23 11:02:00,
2013-02-23 06:11:00,33.0,29.0,29.95,SW,231,0.0,3.0,85,0.00,,,0.00,,2013-02-23 11:11:00,
2013-02-23 06:22:00,33.0,29.0,29.95,SW,231,0.0,6.0,84,0.00,,,0.00,,2013-02-23 11:22:00,
2013-02-23 06:32:00,33.0,29.0,29.96,SW,231,0.0,4.0,84,0.00,,,0.00,,2013-02-23 11:32:00,
2013-02-23 06:42:00,33.0,29.0,29.96,SW,231,0.0,4.0,84,0.00,,,0.00,,2013-02-23 11:42:00,
2013-02-23 06:52:00,32.0,28.0,29.96,SW,231,0.0,3.0,84,0.00,,,0.00,,2013-02-23 11:52:00,
2013-02-23 07:02:00,32.0,28.0,29.97,SW,231,1.0,5.0,84,0.00,,,0.00,,2013-02-23 12:02:00,
2013-02-23 07:11:00,32.0,28.0,29.97,SW,231,1.0,5.0,84,0.00,,,0.00,,2013-02-23 12:11:00,
2013-02-23 07:21:00,32.0,28.0,29.97,SW,231,0.0,4.0,84,0.00,,,0.00,,2013-02-23 12:21:00,
2013-02-23 07:32:00,32.0,27.0,29.97,SW,231,0.0,3.0,83,0.00,,,0.00,,2013-02-23 12:32:00,
2013-02-23 07:42:00,32.0,27.0,29.97,SW,231,0.0,3.0,83,0.00,,,0.00,,2013-02-23 12:42:00,
2013-02-23 07:52:00,32.0,27.0,29.97,SW,231,1.0,5.0,83,0.00,,,0.00,,2013-02-23 12:52:00,
2013-02-23 08:02:00,32.0,27.0,29.98,SW,231,0.0,4.0,83,0.00,,,0.00,,2013-02-23 13:02:00,
2013-02-23 08:11:00,32.0,27.0,29.97,SW,231,0.0,5.0,83,0.00,,,0.00,,2013-02-23 13:11:00,
2013-02-23 08:22:00,32.0,27.0,29.97,SW,231,0.0,5.0,83,0.00,,,0.00,,2013-02-23 13:22:00,
2013-02-23 08:32:00,32.0,27.0,29.97,SW,231,2.0,5.0,82,0.00,,,0.00,,2013-02-23 13:32:00,
2013-02-23 08:42:00,32.0,27.0,29.98,SW,231,3.0,8.0,82,0.00,,,0.00,,2013-02-23 13:42:00,
2013-02-23 08:52:00,32.0,27.0,29.98,SW,231,3.0,8.0,82,0.00,,,0.00,,2013-02-23 13:52:00,
2013-02-23 09:02:00,33.0,28.0,29.97,SW,231,0.0,6.0,81,0.00,,,0.00,,2013-02-23 14:02:00,
2013-02-23 09:11:00,34.0,28.0,29.97,SW,231,2.0,7.0,79,0.00,,,0.00,,2013-02-23 14:11:00,
2013-02-23 09:21:00,34.0,28.0,29.97,SW,231,2.0,7.0,79,0.00,,,0.00,,2013-02-23 14:21:00,
2013-02-23 09:32:00,35.0,29.0,29.97,SW,224,0.0,7.0,77,0.00,,,0.00,,2013-02-23 14:32:00,
2013-02-23 09:42:00,35.0,29.0,29.97,SW,224,0.0,7.0,77,0.00,,,0.00,,2013-02-23 14:42:00,
2013-02-23 09:52:00,36.0,29.0,29.97,SW,226,2.0,8.0,76,0.00,,,0.00,,2013-02-23 14:52:00,
2013-02-23 10:02:00,37.0,30.0,29.96,SW,222,1.0,6.0,75,0.00,,,0.00,,2013-02-23 15:02:00,
2013-02-23 10:11:00,38.0,30.0,29.96,SW,222,2.0,6.0,73,0.00,,,0.00,,2013-02-23 15:11:00,
2013-02-23 10:22:00,38.0,30.0,29.96,SW,222,2.0,6.0,73,0.00,,,0.00,,2013-02-23 15:22:00,
2013-02-23 10:32:00,36.0,29.0,29.96,SW,222,1.0,6.0,74,0.00,,,0.00,,2013-02-23 15:32:00,
2013-02-23 10:42:00,36.0,29.0,29.96,SW,222,1.0,6.0,74,0.00,,,0.00,,2013-02-23 15:42:00,
2013-02-23 10:51:00,36.0,29.0,29.96,SW,222,1.0,6.0,74,0.00,,,0.00,,2013-02-23 15:51:00,
2013-02-23 11:01:00,37.0,29.0,29.94,SW,221,3.0,6.0,73,0.00,,,0.00,,2013-02-23 16:01:00,
2013-02-23 11:11:00,37.0,29.0,29.94,SW,221,3.0,6.0,73,0.00,,,0.00,,2013-02-23 16:11:00,
2013-02-23 11:22:00,38.0,30.0,29.94,SSW,201,3.0,6.0,72,0.00,,,0.00,,2013-02-23 16:22:00,
2013-02-23 11:32:00,38.0,29.0,29.93,SSW,205,3.0,7.0,69,0.00,,,0.00,,2013-02-23 16:32:00,
2013-02-23 11:42:00,38.0,29.0,29.93,SSW,205,3.0,7.0,69,0.00,,,0.00,,2013-02-23 16:42:00,
2013-02-23 11:51:00,38.0,29.0,29.93,SSW,204,4.0,8.0,69,0.00,,,0.00,,2013-02-23 16:51:00,
2013-02-23 12:01:00,40.0,30.0,29.94,SSW,205,3.0,7.0,67,0.00,,,0.00,,2013-02-23 17:01:00,
2013-02-23 12:11:00,41.0,31.0,29.93,WSW,252,1.0,9.0,66,0.00,,,0.00,,2013-02-23 17:11:00,
2013-02-23 12:21:00,41.0,31.0,29.93,WSW,252,1.0,9.0,66,0.00,,,0.00,,2013-02-23 17:21:00,
2013-02-23 12:32:00,42.0,31.0,29.93,WSW,252,2.0,8.0,64,0.00,,,0.00,,2013-02-23 17:32:00,
2013-02-23 12:42:00,42.0,31.0,29.93,WSW,252,2.0,8.0,64,0.00,,,0.00,,2013-02-23 17:42:00,
2013-02-23 12:52:00,42.0,31.0,29.93,SW,232,4.0,8.0,64,0.00,,,0.00,,2013-02-23 17:52:00,
2013-02-23 13:02:00,42.0,30.0,29.93,West,279,1.0,10.0,62,0.00,,,0.00,,2013-02-23 18:02:00,
2013-02-23 13:12:00,42.0,30.0,29.93,West,279,1.0,10.0,62,0.00,,,0.00,,2013-02-23 18:12:00,
2013-02-23 13:22:00,43.0,30.0,29.93,WNW,284,4.0,9.0,61,0.00,,,0.00,,2013-02-23 18:22:00,
2013-02-23 13:32:00,43.0,30.0,29.93,WNW,284,4.0,9.0,61,0.00,,,0.00,,2013-02-23 18:32:00,
2013-02-23 13:42:00,43.0,30.0,29.93,WNW,284,4.0,9.0,61,0.00,,,0.00,,2013-02-23 18:42:00,
2013-02-23 13:52:00,43.0,30.0,29.93,WNW,284,4.0,9.0,61,0.00,,,0.00,,2013-02-23 18:52:00,
2013-02-23 14:01:00,43.0,29.0,29.89,NW,325,0.0,9.0,58,0.00,,,0.00,,2013-02-23 19:01:00,
2013-02-23 14:11:00,43.0,29.0,29.89,NW,325,0.0,9.0,58,0.00,,,0.00,,2013-02-23 19:11:00,
2013-02-23 14:21:00,43.0,29.0,29.89,NW,325,0.0,9.0,58,0.00,,,0.00,,2013-02-23 19:21:00,
2013-02-23 14:32:00,44.0,31.0,29.88,WNW,296,3.0,7.0,59,0.00,,,0.00,,2013-02-23 19:32:00,
2013-02-23 14:41:00,44.0,31.0,29.88,WNW,296,3.0,7.0,59,0.00,,,0.00,,2013-02-23 19:41:00,
2013-02-23 14:52:00,44.0,31.0,29.88,WNW,296,3.0,7.0,59,0.00,,,0.00,,2013-02-23 19:52:00,
2013-02-23 15:01:00,44.0,30.0,29.88,WNW,303,3.0,5.0,58,0.00,,,0.00,,2013-02-23 20:01:00,
2013-02-23 15:11:00,44.0,30.0,29.88,WNW,303,3.0,5.0,58,0.00,,,0.00,,2013-02-23 20:11:00,
2013-02-23 15:22:00,44.0,30.0,29.88,NW,305,5.0,8.0,58,0.00,,,0.00,,2013-02-23 20:22:00,
2013-02-23 15:32:00,45.0,31.0,29.88,West,275,2.0,5.0,57,0.00,,,0.00,,2013-02-23 20:32:00,
2013-02-23 15:42:00,45.0,31.0,29.88,West,275,2.0,5.0,57,0.00,,,0.00,,2013-02-23 20:42:00,
2013-02-23 15:52:00,45.0,31.0,29.88,West,275,2.0,5.0,57,0.00,,,0.00,,2013-02-23 20:52:00,
2013-02-23 16:02:00,45.0,30.0,29.89,NNW,327,3.0,9.0,56,0.00,,,0.00,,2013-02-23 21:02:00,
2013-02-23 16:11:00,45.0,31.0,29.88,NW,316,2.0,8.0,58,0.00,,,0.00,,2013-02-23 21:11:00,
2013-02-23 16:22:00,45.0,31.0,29.88,NW,316,2.0,8.0,58,0.00,,,0.00,,2013-02-23 21:22:00,
2013-02-23 16:32:00,45.0,31.0,29.89,WNW,283,3.0,8.0,57,0.00,,,0.00,,2013-02-23 21:32:00,
2013-02-23 16:42:00,45.0,31.0,29.89,WNW,283,3.0,8.0,57,0.00,,,0.00,,2013-02-23 21:42:00,
2013-02-23 16:51:00,45.0,31.0,29.89,West,281,5.0,8.0,57,0.00,,,0.00,,2013-02-23 21:51:00,
2013-02-23 17:02:00,44.0,29.0,29.88,WNW,282,1.0,4.0,56,0.00,,,0.00,,2013-02-23 22:02:00,
2013-02-23 17:11:00,44.0,29.0,29.88,WNW,282,0.0,5.0,56,0.00,,,0.00,,2013-02-23 22:11:00,
2013-02-23 17:22:00,44.0,29.0,29.88,WNW,282,0.0,5.0,56,0.00,,,0.00,,2013-02-23 22:22:00,
2013-02-23 17:32:00,43.0,29.0,29.88,WNW,282,1.0,4.0,57,0.00,,,0.00,,2013-02-23 22:32:00,
2013-02-23 17:42:00,43.0,29.0,29.88,WNW,282,1.0,4.0,57,0.00,,,0.00,,2013-02-23 22:42:00,
2013-02-23 17:51:00,43.0,29.0,29.88,WNW,282,1.0,4.0,57,0.00,,,0.00,,2013-02-23 22:51:00,
2013-02-23 18:01:00,43.0,29.0,29.88,WNW,282,1.0,6.0,57,0.00,,,0.00,,2013-02-23 23:01:00,
2013-02-23 18:11:00,42.0,28.0,29.88,WNW,282,2.0,5.0,58,0.00,,,0.00,,2013-02-23 23:11:00,
2013-02-23 18:22:00,42.0,28.0,29.88,WNW,282,2.0,5.0,58,0.00,,,0.00,,2013-02-23 23:22:00,
2013-02-23 18:32:00,42.0,28.0,29.88,WNW,282,2.0,5.0,58,0.00,,,0.00,,2013-02-23 23:32:00,
2013-02-23 18:42:00,42.0,28.0,29.88,WNW,282,2.0,5.0,58,0.00,,,0.00,,2013-02-23 23:42:00,
2013-02-23 18:52:00,40.0,27.0,29.88,WNW,282,1.0,4.0,60,0.00,,,0.00,,2013-02-23 23:52:00,
2013-02-23 19:02:00,39.0,27.0,29.88,WNW,282,1.0,4.0,61,0.00,,,0.00,,2013-02-24 00:02:00,
2013-02-23 19:11:00,39.0,27.0,29.89,WNW,282,1.0,4.0,62,0.00,,,0.00,,2013-02-24 00:11:00,
2013-02-23 19:22:00,39.0,27.0,29.89,WNW,282,1.0,4.0,62,0.00,,,0.00,,2013-02-24 00:22:00,
2013-02-23 19:32:00,38.0,27.0,29.89,WNW,282,1.0,3.0,64,0.00,,,0.00,,2013-02-24 00:32:00,
2013-02-23 19:42:00,38.0,27.0,29.89,WNW,282,1.0,3.0,64,0.00,,,0.00,,2013-02-24 00:42:00,
2013-02-23 19:52:00,37.0,26.0,29.89,WNW,282,1.0,3.0,64,0.00,,,0.00,,2013-02-24 00:52:00,
2013-02-23 20:01:00,37.0,26.0,29.89,WNW,282,1.0,3.0,64,0.00,,,0.00,,2013-02-24 01:01:00,
2013-02-23 20:11:00,37.0,26.0,29.89,WNW,282,1.0,3.0,64,0.00,,,0.00,,2013-02-24 01:11:00,
2013-02-23 20:22:00,36.0,26.0,29.90,WNW,282,1.0,3.0,66,0.00,,,0.00,,2013-02-24 01:22:00,
2013-02-23 20:32:00,35.0,25.0,29.90,WNW,282,1.0,2.0,67,0.00,,,0.00,,2013-02-24 01:32:00,
2013-02-23 20:42:00,35.0,25.0,29.90,WNW,282,1.0,2.0,67,0.00,,,0.00,,2013-02-24 01:42:00,
2013-02-23 20:51:00,35.0,25.0,29.90,WNW,282,1.0,3.0,67,0.00,,,0.00,,2013-02-24 01:51:00,
2013-02-23 21:01:00,35.0,25.0,29.91,WNW,282,0.0,1.0,67,0.00,,,0.00,,2013-02-24 02:01:00,
2013-02-23 21:11:00,35.0,25.0,29.91,WNW,282,0.0,1.0,67,0.00,,,0.00,,2013-02-24 02:11:00,
2013-02-23 21:22:00,34.0,25.0,29.90,WNW,282,0.0,0.0,68,0.00,,,0.00,,2013-02-24 02:22:00,
2013-02-23 21:32:00,34.0,25.0,29.90,WNW,282,0.0,2.0,69,0.00,,,0.00,,2013-02-24 02:32:00,
2013-02-23 21:42:00,34.0,25.0,29.90,WNW,282,0.0,2.0,69,0.00,,,0.00,,2013-02-24 02:42:00,
2013-02-23 21:52:00,34.0,25.0,29.90,WNW,282,0.0,2.0,69,0.00,,,0.00,,2013-02-24 02:52:00,
2013-02-23 22:02:00,34.0,25.0,29.90,WNW,282,1.0,3.0,70,0.00,,,0.00,,2013-02-24 03:02:00,
2013-02-23 22:11:00,34.0,26.0,29.91,WNW,282,2.0,4.0,71,0.00,,,0.00,,2013-02-24 03:11:00,
2013-02-23 22:22:00,34.0,26.0,29.91,WNW,282,2.0,4.0,71,0.00,,,0.00,,2013-02-24 03:22:00,
2013-02-23 22:32:00,34.0,26.0,29.91,WNW,282,1.0,5.0,72,0.00,,,0.00,,2013-02-24 03:32:00,
2013-02-23 22:42:00,34.0,26.0,29.91,WNW,282,1.0,5.0,72,0.00,,,0.00,,2013-02-24 03:42:00,
2013-02-23 22:52:00,33.0,25.0,29.92,WNW,282,1.0,4.0,72,0.00,,,0.00,,2013-02-24 03:52:00,
2013-02-23 23:02:00,33.0,25.0,29.92,WNW,282,1.0,4.0,72,0.00,,,0.00,,2013-02-24 04:02:00,
2013-02-23 23:11:00,33.0,25.0,29.92,WNW,282,1.0,4.0,72,0.00,,,0.00,,2013-02-24 04:11:00,
2013-02-23 23:21:00,33.0,25.0,29.93,WNW,283,1.0,4.0,72,0.00,,,0.00,,2013-02-24 04:21:00,
2013-02-23 23:32:00,33.0,25.0,29.92,WNW,283,1.0,4.0,72,0.00,,,0.00,,2013-02-24 04:32:00,
2013-02-23 23:42:00,33.0,25.0,29.92,WNW,283,1.0,4.0,72,0.00,,,0.00,,2013-02-24 04:42:00,
2013-02-23 23:52:00,33.0,25.0,29.92,WNW,283,1.0,5.0,72,0.00,,,0.00,,2013-02-24 04:52:00,